Погода во Власовке

Украина / Кировоградская область     49°07′13″N   33°16′46″E
темп.,
°C
ветер,
м/с
пор.,
м/с
влажн.,
%
обл.,
%
осадки,
мм/ч
давл.,
гПа
погр.,
м
13 мая, чт
чт1300:00+7всв119159 0.1 101237
03:00+8ююз1187100 0.1 101236
06:00+8ю118546 0.0 101246
09:00+12ю336499 0.0 1012906
12:00+15ю455139 0.0 10121401
15:00+18ю564448 0.0 10121590
18:00+18ю4656100 0.0 10111227
21:00+15юв486498 0.0 1011180
14 мая, пт
пт1400:00+13вюв486497 0.0 1011156
03:00+12вюв3773100 0.0 1010124
06:00+12юв248195 0.0 100998
09:00+18юв457249 0.1 1008569
12:00+21ю575367 0.0 10081268
15:00+23ю79473 0.0 10071707
18:00+22ююз695697 0.0 10071237
21:00+16юз487878 0.1 1009161
15 мая, сб
сб1500:00+13ююз368681 0.0 1010117
03:00+12ююз3692100 0.0 1010115
06:00+13ююз2686100 0.0 1011180
09:00+17ююз467137 0.0 1011479
12:00+22юз575093 0.1 10111876
15:00+23зюз5747100 0.1 10112427
18:00+19зюз226483 0.0 101224
21:00+18с226598 0.0 101213
16 мая, вс
вс1600:00+15с227588 0.0 101320
03:00+13всв23810 0.0 101331
06:00+13всв24860 0.0 101383
09:00+19всв4567100 0.0 1013450
12:00+23всв345184 0.0 10121361
15:00+25в3443100 0.0 10102191
18:00+24всв465295 0.0 1009448
21:00+19св4967100 0.0 1008163
17 мая, пн
пн1700:00+18всв41176100 0.1 1007266
03:00+16в2394100 3.1 100572
06:00+16св3491100 0.3 100498
09:00+20в3472100 0.3 1003392
12:00+24ююв4658100 0.0 10021101
15:00+26ююв57505 0.0 10021803
18:00+21ююз61079100 2.7 1002331
21:00+17з489028 3.2 1005293